Starlink 6110

operational
NORAD ID: 56907 Int'l Des: 2023-083 Owner: SPXS Country: US Constellation: starlink
LEOCIRCULAR

Starlink 6110について

説明を読み込み中...

リアルタイム位置

3D地球を読み込み中...

次回通過

高度履歴

Altitude vs Time

uPlot chart will show altitude changes over time

軌道要素

1 56907U 23083AH 26063.16670139 .00036289 00000-0 25251-2 0 9998
2 56907 43.0003 99.1683 0001907 275.3306 139.4885 15.04877934 5672
Epoch: Mar 4, 2026 • Age: 18 hours

現在のステータス

高度 559.6 km
速度 7.58 km/s
衛星直下点 -32.44°S, 17.16°W
打ち上げ日 Jun 12, 2023
運用期間 2.7 years
タイプ internet

技術仕様

分類 Payload
質量 305.00 kg
乾燥質量 290.00 kg
総質量 305.00 kg
長さ 0.20 m
直径 2.80 m
スパン 9.00 m
形状 Box + pan
製造者 SPXS
バスタイプ Starlink
フェーズステータス In Orbit
所有者/国 SPXS/US

大規模コンステレーション

Loading constellations...